Time,TemperatureF,DewpointF,PressureIn,WindDirection,WindDirectionDegrees,WindSpeedMPH,WindSpeedGustMPH,Humidity,HourlyPrecipIn,Conditions,Clouds,dailyrainin,SoftwareType,DateUTC
2013-05-31 00:07:00,69.5,66.0,29.84,SSE,154,7.0,13.0,87,0.00,,,0.00,weatherlink.com 1.10,2013-05-31 04:07:00,
2013-05-31 00:22:00,69.2,66.0,29.84,SSW,196,7.0,7.0,88,0.00,,,0.00,weatherlink.com 1.10,2013-05-31 04:22:00,
2013-05-31 00:37:00,69.2,66.0,29.83,South,180,2.0,12.0,88,0.00,,,0.00,weatherlink.com 1.10,2013-05-31 04:37:00,
2013-05-31 00:52:00,69.2,65.0,29.84,SSW,212,4.0,14.0,87,0.00,,,0.00,weatherlink.com 1.10,2013-05-31 04:52:00,
2013-05-31 01:07:00,69.0,65.0,29.85,South,175,1.0,16.0,87,0.00,,,0.00,weatherlink.com 1.10,2013-05-31 05:07:00,
2013-05-31 01:22:00,68.9,65.0,29.84,WSW,241,8.0,10.0,87,0.00,,,0.00,weatherlink.com 1.10,2013-05-31 05:22:00,
2013-05-31 01:37:00,68.6,65.0,29.84,South,180,2.0,7.0,87,0.00,,,0.00,weatherlink.com 1.10,2013-05-31 05:37:00,
2013-05-31 01:52:00,67.9,64.0,29.85,SSE,165,0.0,4.0,88,0.00,,,0.00,weatherlink.com 1.10,2013-05-31 05:52:00,
2013-05-31 02:07:00,61.8,59.0,29.85,WNW,291,3.0,5.0,89,0.00,,,0.00,weatherlink.com 1.10,2013-05-31 06:07:00,
2013-05-31 02:22:00,61.0,59.0,29.85,ESE,109,1.0,7.0,93,0.00,,,0.00,weatherlink.com 1.10,2013-05-31 06:22:00,
2013-05-31 02:37:00,63.6,63.0,29.85,SW,236,2.0,5.0,96,0.00,,,0.00,weatherlink.com 1.10,2013-05-31 06:37:00,
2013-05-31 02:52:00,66.9,66.0,29.84,SSW,200,3.0,7.0,96,0.00,,,0.00,weatherlink.com 1.10,2013-05-31 06:52:00,
2013-05-31 03:07:00,67.8,66.0,29.84,SSW,213,2.0,7.0,92,0.00,,,0.00,weatherlink.com 1.10,2013-05-31 07:07:00,
2013-05-31 03:22:00,68.1,65.0,29.84,South,189,6.0,8.0,90,0.00,,,0.00,weatherlink.com 1.10,2013-05-31 07:22:00,
2013-05-31 03:37:00,67.9,65.0,29.83,SW,225,4.0,7.0,90,0.00,,,0.00,weatherlink.com 1.10,2013-05-31 07:37:00,
2013-05-31 03:52:00,67.4,65.0,29.82,South,173,0.0,4.0,90,0.00,,,0.00,weatherlink.com 1.10,2013-05-31 07:52:00,
2013-05-31 04:07:00,67.0,64.0,29.82,South,185,0.0,3.0,91,0.00,,,0.00,weatherlink.com 1.10,2013-05-31 08:07:00,
2013-05-31 04:22:00,62.7,60.0,29.82,South,182,2.0,2.0,90,0.00,,,0.00,weatherlink.com 1.10,2013-05-31 08:22:00,
2013-05-31 04:37:00,61.9,59.0,29.82,WNW,290,0.0,4.0,90,0.00,,,0.00,weatherlink.com 1.10,2013-05-31 08:37:00,
2013-05-31 04:52:00,64.7,64.0,29.82,South,173,1.0,7.0,96,0.00,,,0.00,weatherlink.com 1.10,2013-05-31 08:52:00,
2013-05-31 05:07:00,65.0,63.0,29.82,SSE,159,3.0,6.0,93,0.00,,,0.00,weatherlink.com 1.10,2013-05-31 09:07:00,
2013-05-31 05:22:00,63.9,62.0,29.81,SE,143,5.0,8.0,92,0.00,,,0.00,weatherlink.com 1.10,2013-05-31 09:22:00,
2013-05-31 05:37:00,61.0,59.0,29.82,SSE,160,5.0,8.0,93,0.00,,,0.00,weatherlink.com 1.10,2013-05-31 09:37:00,
2013-05-31 05:52:00,59.0,57.0,29.82,SSE,165,1.0,15.0,94,0.00,,,0.00,weatherlink.com 1.10,2013-05-31 09:52:00,
2013-05-31 06:07:00,57.3,56.0,29.82,SSE,148,11.0,18.0,94,0.00,,,0.00,weatherlink.com 1.10,2013-05-31 10:07:00,
2013-05-31 06:23:00,56.0,54.0,29.82,SSE,159,13.0,15.0,94,0.00,,,0.00,weatherlink.com 1.10,2013-05-31 10:23:00,
2013-05-31 06:38:00,55.2,54.0,29.83,SSE,148,12.0,15.0,95,0.00,,,0.00,weatherlink.com 1.10,2013-05-31 10:38:00,
2013-05-31 06:53:00,55.1,54.0,29.82,SSE,152,5.0,13.0,95,0.00,,,0.00,weatherlink.com 1.10,2013-05-31 10:53:00,
2013-05-31 07:08:00,56.2,55.0,29.81,SSE,153,6.0,12.0,96,0.00,,,0.00,weatherlink.com 1.10,2013-05-31 11:08:00,
2013-05-31 07:23:00,57.8,56.0,29.81,SSE,167,4.0,12.0,95,0.00,,,0.00,weatherlink.com 1.10,2013-05-31 11:23:00,
2013-05-31 07:38:00,59.0,57.0,29.80,SSE,150,11.0,13.0,93,0.00,,,0.00,weatherlink.com 1.10,2013-05-31 11:38:00,
2013-05-31 07:53:00,60.4,58.0,29.80,SE,138,8.0,12.0,93,0.00,,,0.00,weatherlink.com 1.10,2013-05-31 11:53:00,
2013-05-31 08:08:00,62.7,60.0,29.79,SSE,163,5.0,11.0,91,0.00,,,0.00,weatherlink.com 1.10,2013-05-31 12:08:00,
2013-05-31 08:23:00,63.7,61.0,29.79,SSE,147,8.0,11.0,90,0.00,,,0.00,weatherlink.com 1.10,2013-05-31 12:23:00,
2013-05-31 08:38:00,64.2,61.0,29.79,SSE,147,4.0,12.0,90,0.00,,,0.00,weatherlink.com 1.10,2013-05-31 12:38:00,
2013-05-31 08:53:00,65.9,62.0,29.80,SSE,167,3.0,12.0,88,0.00,,,0.00,weatherlink.com 1.10,2013-05-31 12:53:00,
2013-05-31 09:08:00,66.9,63.0,29.80,South,180,4.0,11.0,87,0.00,,,0.00,weatherlink.com 1.10,2013-05-31 13:08:00,
2013-05-31 09:23:00,68.4,64.0,29.79,South,169,4.0,12.0,85,0.00,,,0.00,weatherlink.com 1.10,2013-05-31 13:23:00,
2013-05-31 09:38:00,69.2,65.0,29.79,SSE,149,7.0,11.0,85,0.00,,,0.00,weatherlink.com 1.10,2013-05-31 13:38:00,
2013-05-31 09:53:00,70.9,65.0,29.79,SSE,152,6.0,15.0,81,0.00,,,0.00,weatherlink.com 1.10,2013-05-31 13:53:00,
2013-05-31 10:08:00,71.9,65.0,29.78,SSE,159,6.0,11.0,79,0.00,,,0.00,weatherlink.com 1.10,2013-05-31 14:08:00,
2013-05-31 10:23:00,70.1,64.0,29.79,SSE,160,8.0,14.0,80,0.00,,,0.00,weatherlink.com 1.10,2013-05-31 14:23:00,
2013-05-31 10:38:00,68.2,63.0,29.79,SSE,165,3.0,13.0,84,0.00,,,0.00,weatherlink.com 1.10,2013-05-31 14:38:00,
2013-05-31 10:53:00,68.9,63.0,29.79,SE,145,6.0,9.0,82,0.00,,,0.00,weatherlink.com 1.10,2013-05-31 14:53:00,
2013-05-31 11:08:00,68.1,63.0,29.79,SE,142,8.0,12.0,83,0.00,,,0.00,weatherlink.com 1.10,2013-05-31 15:08:00,
2013-05-31 11:23:00,67.9,63.0,29.79,South,176,7.0,12.0,83,0.00,,,0.00,weatherlink.com 1.10,2013-05-31 15:23:00,
2013-05-31 11:38:00,67.9,62.0,29.79,SE,143,10.0,13.0,82,0.00,,,0.00,weatherlink.com 1.10,2013-05-31 15:38:00,
2013-05-31 11:53:00,68.5,63.0,29.79,South,171,3.0,13.0,82,0.00,,,0.00,weatherlink.com 1.10,2013-05-31 15:53:00,
2013-05-31 12:08:00,71.7,64.0,29.79,SE,146,5.0,12.0,77,0.00,,,0.00,weatherlink.com 1.10,2013-05-31 16:08:00,
2013-05-31 12:23:00,73.7,64.0,29.79,South,173,5.0,13.0,72,0.00,,,0.00,weatherlink.com 1.10,2013-05-31 16:23:00,
2013-05-31 12:38:00,72.7,64.0,29.79,SSW,208,5.0,14.0,74,0.00,,,0.00,weatherlink.com 1.10,2013-05-31 16:38:00,
2013-05-31 12:53:00,73.9,64.0,29.78,SSW,201,4.0,11.0,71,0.00,,,0.00,weatherlink.com 1.10,2013-05-31 16:53:00,
2013-05-31 13:08:00,75.2,64.0,29.78,South,188,6.0,12.0,69,0.00,,,0.00,weatherlink.com 1.10,2013-05-31 17:08:00,
2013-05-31 13:23:00,76.3,65.0,29.78,WSW,254,3.0,14.0,68,0.00,,,0.00,weatherlink.com 1.10,2013-05-31 17:23:00,
2013-05-31 13:38:00,76.0,65.0,29.78,West,275,5.0,17.0,68,0.00,,,0.00,weatherlink.com 1.10,2013-05-31 17:38:00,
2013-05-31 13:53:00,75.9,63.0,29.77,WSW,257,7.0,15.0,65,0.00,,,0.00,weatherlink.com 1.10,2013-05-31 17:53:00,
2013-05-31 14:08:00,76.2,64.0,29.77,SSW,207,7.0,14.0,66,0.00,,,0.00,weatherlink.com 1.10,2013-05-31 18:08:00,
2013-05-31 14:23:00,77.4,64.0,29.76,SSW,202,6.0,15.0,63,0.00,,,0.00,weatherlink.com 1.10,2013-05-31 18:23:00,
2013-05-31 14:38:00,77.8,65.0,29.76,WSW,245,5.0,11.0,64,0.00,,,0.00,weatherlink.com 1.10,2013-05-31 18:38:00,
2013-05-31 14:53:00,76.5,64.0,29.76,South,180,3.0,10.0,65,0.00,,,0.00,weatherlink.com 1.10,2013-05-31 18:53:00,
2013-05-31 15:08:00,76.0,64.0,29.76,WNW,293,9.0,10.0,66,0.00,,,0.00,weatherlink.com 1.10,2013-05-31 19:08:00,
2013-05-31 15:23:00,66.8,58.0,29.76,NW,324,5.0,11.0,74,0.00,,,0.00,weatherlink.com 1.10,2013-05-31 19:23:00,
2013-05-31 15:38:00,64.4,57.0,29.76,WNW,288,2.0,6.0,77,0.00,,,0.00,weatherlink.com 1.10,2013-05-31 19:38:00,
2013-05-31 15:53:00,65.3,58.0,29.75,NW,321,4.0,5.0,76,0.00,,,0.00,weatherlink.com 1.10,2013-05-31 19:53:00,
2013-05-31 16:08:00,65.7,58.0,29.75,NW,307,3.0,6.0,77,0.00,,,0.00,weatherlink.com 1.10,2013-05-31 20:08:00,
2013-05-31 16:23:00,68.6,61.0,29.75,NW,316,2.0,4.0,76,0.00,,,0.00,weatherlink.com 1.10,2013-05-31 20:23:00,
2013-05-31 16:39:00,71.3,62.0,29.75,NNW,342,2.0,3.0,73,0.00,,,0.00,weatherlink.com 1.10,2013-05-31 20:39:00,
2013-05-31 16:53:00,69.5,60.0,29.75,NNW,331,4.0,5.0,72,0.00,,,0.00,weatherlink.com 1.10,2013-05-31 20:53:00,
2013-05-31 17:08:00,69.4,61.0,29.75,NW,322,3.0,5.0,74,0.00,,,0.00,weatherlink.com 1.10,2013-05-31 21:08:00,
2013-05-31 17:23:00,68.3,60.0,29.75,WNW,292,6.0,8.0,76,0.00,,,0.00,weatherlink.com 1.10,2013-05-31 21:23:00,
2013-05-31 17:38:00,68.1,60.0,29.75,WNW,288,3.0,5.0,75,0.00,,,0.00,weatherlink.com 1.10,2013-05-31 21:38:00,
2013-05-31 17:53:00,67.5,60.0,29.75,NW,314,5.0,6.0,77,0.00,,,0.00,weatherlink.com 1.10,2013-05-31 21:53:00,
2013-05-31 18:08:00,66.3,59.0,29.75,North,350,2.0,5.0,78,0.00,,,0.00,weatherlink.com 1.10,2013-05-31 22:08:00,
2013-05-31 18:24:00,66.5,59.0,29.75,WNW,296,2.0,5.0,77,0.00,,,0.00,weatherlink.com 1.10,2013-05-31 22:24:00,
2013-05-31 18:39:00,64.6,59.0,29.75,NW,309,3.0,4.0,81,0.00,,,0.00,weatherlink.com 1.10,2013-05-31 22:39:00,
2013-05-31 18:54:00,65.7,60.0,29.75,WNW,300,2.0,4.0,82,0.00,,,0.00,weatherlink.com 1.10,2013-05-31 22:54:00,
2013-05-31 19:09:00,67.9,61.0,29.74,NW,304,0.0,2.0,79,0.00,,,0.00,weatherlink.com 1.10,2013-05-31 23:09:00,
2013-05-31 19:24:00,69.8,62.0,29.74,NW,304,2.0,2.0,76,0.00,,,0.00,weatherlink.com 1.10,2013-05-31 23:24:00,
2013-05-31 19:39:00,69.2,61.0,29.74,NW,321,1.0,3.0,74,0.00,,,0.00,weatherlink.com 1.10,2013-05-31 23:39:00,
2013-05-31 19:54:00,65.9,58.0,29.75,NW,315,1.0,3.0,75,0.00,,,0.00,weatherlink.com 1.10,2013-05-31 23:54:00,
2013-05-31 20:09:00,61.0,57.0,29.75,SSW,196,1.0,2.0,85,0.00,,,0.00,weatherlink.com 1.10,2013-06-01 00:09:00,
2013-05-31 20:24:00,62.5,59.0,29.75,SSW,195,1.0,3.0,89,0.00,,,0.00,weatherlink.com 1.10,2013-06-01 00:24:00,
2013-05-31 20:39:00,60.1,55.0,29.75,NW,322,1.0,4.0,84,0.00,,,0.00,weatherlink.com 1.10,2013-06-01 00:39:00,
2013-05-31 20:54:00,58.4,55.0,29.75,North,360,3.0,6.0,87,0.00,,,0.00,weatherlink.com 1.10,2013-06-01 00:54:00,
2013-05-31 21:09:00,58.6,55.0,29.75,West,279,1.0,2.0,89,0.00,,,0.00,weatherlink.com 1.10,2013-06-01 01:09:00,
2013-05-31 21:24:00,59.5,56.0,29.75,SSE,152,0.0,3.0,89,0.00,,,0.00,weatherlink.com 1.10,2013-06-01 01:24:00,
2013-05-31 21:39:00,61.0,58.0,29.75,SSE,157,4.0,8.0,89,0.00,,,0.00,weatherlink.com 1.10,2013-06-01 01:39:00,
2013-05-31 21:54:00,61.5,58.0,29.75,SSE,159,2.0,5.0,88,0.00,,,0.00,weatherlink.com 1.10,2013-06-01 01:54:00,
2013-05-31 22:09:00,61.3,58.0,29.75,SSE,167,1.0,4.0,88,0.00,,,0.00,weatherlink.com 1.10,2013-06-01 02:09:00,
2013-05-31 22:24:00,60.6,57.0,29.75,South,180,1.0,4.0,87,0.00,,,0.00,weatherlink.com 1.10,2013-06-01 02:24:00,
2013-05-31 22:39:00,59.5,56.0,29.75,South,172,1.0,7.0,87,0.00,,,0.00,weatherlink.com 1.10,2013-06-01 02:39:00,
2013-05-31 22:54:00,58.9,55.0,29.74,SSE,152,2.0,5.0,87,0.00,,,0.00,weatherlink.com 1.10,2013-06-01 02:54:00,
2013-05-31 23:09:00,58.4,55.0,29.74,SE,141,2.0,7.0,88,0.00,,,0.00,weatherlink.com 1.10,2013-06-01 03:09:00,
2013-05-31 23:24:00,58.0,55.0,29.73,SSE,159,1.0,4.0,88,0.00,,,0.00,weatherlink.com 1.10,2013-06-01 03:24:00,
2013-05-31 23:39:00,57.7,55.0,29.73,SSE,156,4.0,9.0,89,0.00,,,0.00,weatherlink.com 1.10,2013-06-01 03:39:00,
2013-05-31 23:54:00,57.0,54.0,29.73,SSE,157,2.0,9.0,88,0.00,,,0.00,weatherlink.com 1.10,2013-06-01 03:54:00,